Tacoma Narrows, WA
on Wednesday, December 5, 2012

Wednesday
Previous Day Next Day
Daily Summary
 ActualAverageRecord
Temperature
Mean Temperature °F °F  
Max Temperature 46°F 45°F 62°F (2006)
Min Temperature 41°F 38°F 27°F (2013)
Degree Days
Heating Degree Days 22    
Moisture
Dew Point 37°F   
Average Humidity 78    
Maximum Humidity 82    
Minimum Humidity 68    
Precipitation
Precipitation 0.02 in in in ()
Wind
Wind Speed 10 mph   
Max Wind Speed 13 mph   
Max Gust Speed 22 mph   
Visibility 10 miles   
Events Rain   
Averages and records for this station are not official NWS values.
Key: T is trace of precipitation, MM is missing value
Source: NWS Daily Summary
Seasonal Weather Averages
Time(PST)TemperatureDew PointHumidity Pressure Visibility Wind DirectionWind SpeedGust SpeedPrecipitationEvents Conditions
12:53 AM 44.1°F 37.9°F 79% 29.90 in 10.0 miles South 12.7 mph 21.9 mph N/A   Clear
1:53 AM 44.1°F 36.0°F 73% 29.95 in 10.0 miles SSW 11.5 mph 21.9 mph N/A   Mostly Cloudy
2:53 AM 43.0°F 36.0°F 76% 29.99 in 10.0 miles SSW 12.7 mph 20.7 mph 0.00 in   Scattered Clouds
3:53 AM 43.0°F 36.0°F 76% 30.03 in 9.0 miles South 10.4 mph - 0.00 in Rain Light Rain
4:51 AM 42.8°F 35.6°F 76% 30.06 in 10.0 miles South 10.4 mph - 0.01 in   Overcast
4:53 AM 42.1°F 36.0°F 79% 30.07 in 10.0 miles South 10.4 mph - 0.01 in   Overcast
6:53 AM 42.1°F 36.0°F 79% 30.12 in 10.0 miles SSW 10.4 mph - N/A   Mostly Cloudy
7:53 AM 41.0°F 36.0°F 82% 30.14 in 10.0 miles South 9.2 mph - N/A   Scattered Clouds
8:53 AM 43.0°F 37.0°F 80% 30.17 in 10.0 miles South 10.4 mph - N/A   Scattered Clouds
9:53 AM 43.0°F 37.0°F 80% 30.19 in 10.0 miles South 9.2 mph - N/A   Scattered Clouds
10:53 AM 43.0°F 37.0°F 80% 30.21 in 10.0 miles South 9.2 mph - N/A   Mostly Cloudy
11:53 AM 46.0°F 37.9°F 73% 30.20 in 10.0 miles SSW 10.4 mph - N/A   Partly Cloudy
12:53 PM 46.9°F 37.0°F 68% 30.19 in 10.0 miles South 12.7 mph 18.4 mph N/A   Scattered Clouds
1:53 PM 46.9°F 37.0°F 68% 30.18 in 10.0 miles South 11.5 mph 18.4 mph N/A   Scattered Clouds
2:53 PM 46.0°F 36.0°F 68% 30.19 in 10.0 miles SSW 8.1 mph - 0.00 in   Scattered Clouds
3:53 PM 43.0°F 37.0°F 80% 30.22 in 7.0 miles SSW 10.4 mph - 0.00 in Rain Light Rain
4:53 PM 43.0°F 37.9°F 82% 30.20 in 10.0 miles South 6.9 mph - 0.00 in   Overcast
5:53 PM 43.0°F 37.0°F 80% 30.20 in 10.0 miles South 9.2 mph - N/A   Clear
6:53 PM 43.0°F 37.9°F 82% 30.21 in 10.0 miles South 5.8 mph - N/A   Overcast
7:53 PM 43.0°F 37.9°F 82% 30.22 in 10.0 miles South 6.9 mph - 0.01 in   Overcast
8:53 PM 43.0°F 37.9°F 82% 30.21 in 10.0 miles SSE 5.8 mph - N/A   Mostly Cloudy
9:53 PM 42.1°F 37.0°F 82% 30.21 in 10.0 miles South 5.8 mph - N/A   Overcast
10:27 PM 42.8°F 37.4°F 81% 30.19 in 10.0 miles South 6.9 mph - N/A   Overcast
10:53 PM 43.0°F 37.9°F 82% 30.20 in 10.0 miles South 5.8 mph - N/A   Overcast
11:01 PM 42.8°F 37.4°F 81% 30.19 in 10.0 miles South 8.1 mph - N/A   Overcast
11:53 PM 43.0°F 37.9°F 82% 30.20 in 10.0 miles South 3.5 mph - N/A   Overcast
Moon Phase
Dec. 05 Dec. 06 Dec. 13 Dec. 20 Dec. 28
Sunrise:07:41 AM (PST) Moon Rise:11:37 PM (PST)12/5
Sunset:04:20 PM (PST) Moon Set:11:48 AM (PST)12/5

Copyright © 2014 The Weather Underground, Inc.